Terug naar catalogus

SL-16 DEB

ActiefLEO
NORAD 39718·DEBRIS·🇷🇺 Russia

Gelanceerd Dec 25, 1992 vanaf Baikonur Cosmodrome

Loading…

Volgende Passages (komende 24 uur)

TLE

VersSource: Space-Track

Epoch: Sep 14, 2026, 02:56 UTC

1 39718U 92093KJ  26257.12287192  .00003858  00000-0  81203-3 0  9996
2 39718  71.1844  31.4336 0026901 352.0204   8.0511 14.59912495652354

Volg SL-16 DEB in realtime met AllMySat

Download on the App Store